查询记录 防骗资讯 设为首页 联系我们

本站提示

欢迎来到“防骗数据库”——中国互联网最大的骗子举报和搜索平台。我们通过用户举报的方式不断收集骗子信息,起到信息共享,互相帮助,并震慑诈骗分子的作用。当您接到“响一声”电话时,当您接到骗子电话/短信/飞信时,当您发现诈骗网站时,请来本站进行曝光。 关于本站的更多问题参见常见问题解答

用户在本站发表内容请遵循相关法律法规。本站不提供公民个人信息查询,如果您的隐私被侵犯,请和我们联系予以处理。

历史查询记录

  • 2019/12/19 23:28:03 [身份证] 142601199811076811,总共被查询 3 次。
  • 2019/12/19 23:26:47 [企业] qq空间无辜被封,总共被查询 11 次。
  • 2019/12/19 23:25:43 [企业] qq空间,总共被查询 17 次。
  • 2019/12/19 23:23:48 [QQ] 1653336732,总共被查询 21 次。
  • 2019/12/19 23:23:09 [电话] 18275253804,总共被查询 1 次。
  • 2019/12/19 23:23:09 [电话] 13037253231,总共被查询 1 次。
  • 2019/12/19 23:23:09 [电话] 17521011454,总共被查询 1 次。
  • 2019/12/19 23:23:09 [电话] 18975705861,总共被查询 1 次。
  • 2019/12/19 23:18:46 [电话] 18174967894,总共被查询 33 次。
  • 2019/12/19 23:17:43 [QQ] 2364192525,总共被查询 1 次。
  • 2019/12/19 22:40:55 [企业] ?唐山普惠农业,总共被查询 3 次。
  • 2019/12/19 22:38:07 [电话] 13623256868,总共被查询 1 次。
  • 2019/12/19 22:23:08 [电话] 15774362849,总共被查询 1 次。
  • 2019/12/19 22:23:08 [电话] 13268068110,总共被查询 1 次。
  • 2019/12/19 22:23:07 [电话] 15645594593,总共被查询 1 次。
  • 2019/12/19 22:14:05 [QQ] 100660423,总共被查询 1 次。
  • 2019/12/19 22:13:57 [电话] 1006604230,总共被查询 10 次。
  • 2019/12/19 21:46:47 [电话] 17764012842,总共被查询 8 次。
  • 2019/12/19 21:26:53 [企业] 4008269315,总共被查询 14 次。
  • 2019/12/19 21:26:21 [电话] 18201091497,总共被查询 8 次。
  • 2019/12/19 21:23:08 [电话] 15134769276,总共被查询 1 次。
  • 2019/12/19 21:23:08 [电话] 15817767049,总共被查询 1 次。
  • 2019/12/19 21:23:08 [电话] 13069012466,总共被查询 1 次。
  • 2019/12/19 20:51:24 [QQ] 343609852,总共被查询 10 次。
  • 2019/12/19 20:38:28 [电话] 18511344720,总共被查询 1 次。
  • 2019/12/19 20:33:20 [电话] 13917575693,总共被查询 1 次。
  • 2019/12/19 20:30:38 [电话] 17339551513,总共被查询 1 次。
  • 2019/12/19 20:23:07 [电话] 18818786553,总共被查询 1 次。
  • 2019/12/19 20:23:07 [电话] 13297486822,总共被查询 1 次。
  • 2019/12/19 20:23:07 [电话] 17765801898,总共被查询 1 次。
  • 2019/12/19 20:23:07 [电话] 15061588181,总共被查询 1 次。
  • 2019/12/19 20:23:07 [电话] 13796670999,总共被查询 1 次。
  • 2019/12/19 20:23:06 [电话] 19957025930,总共被查询 1 次。
  • 2019/12/19 20:23:06 [电话] 13013326089,总共被查询 1 次。
  • 2019/12/19 20:23:06 [电话] 18996141963,总共被查询 1 次。
  • 2019/12/19 20:03:53 [电话] 18142889085,总共被查询 1 次。
  • 2019/12/19 20:02:58 [电话] 13580553671,总共被查询 1 次。
  • 2019/12/19 19:26:57 [QQ] 1660946514,总共被查询 5 次。
  • 2019/12/19 19:23:07 [电话] 18998435130,总共被查询 1 次。
  • 2019/12/19 19:23:07 [电话] 13147884751,总共被查询 1 次。
  • 2019/12/19 19:23:07 [电话] 13817241119,总共被查询 1 次。
  • 2019/12/19 19:23:06 [电话] 13296517551,总共被查询 1 次。
  • 2019/12/19 19:23:06 [电话] 16696747097,总共被查询 1 次。
  • 2019/12/19 19:23:06 [电话] 19802572697,总共被查询 1 次。
  • 2019/12/19 19:09:12 [电话] 17561787013,总共被查询 1 次。
  • 2019/12/19 18:45:10 [企业] 君柏传媒,总共被查询 10 次。
  • 2019/12/19 18:42:25 [企业] 君柏,总共被查询 3 次。
  • 2019/12/19 18:23:07 [电话] 18565678551,总共被查询 1 次。
  • 2019/12/19 18:23:07 [电话] 13298650654,总共被查询 1 次。
  • 2019/12/19 18:23:06 [电话] 13513400531,总共被查询 1 次。
  • 2019/12/19 18:23:06 [电话] 15931218287,总共被查询 1 次。
  • 2019/12/19 18:23:06 [电话] 13419020479,总共被查询 1 次。
  • 2019/12/19 18:23:06 [电话] 15220179962,总共被查询 1 次。
  • 2019/12/19 18:23:06 [电话] 15587070320,总共被查询 1 次。
  • 2019/12/19 18:23:06 [电话] 13066192621,总共被查询 1 次。
  • 2019/12/19 18:21:01 [电话] 13218726131,总共被查询 23 次。
  • 2019/12/19 18:15:23 [电话] 18565437130,总共被查询 3 次。
  • 2019/12/19 18:14:42 [电话] 15327432786,总共被查询 1 次。
  • 2019/12/19 17:56:59 [电话] 15688223982,总共被查询 7 次。
  • 2019/12/19 17:54:09 [电话] 15679407132,总共被查询 1 次。
  • 2019/12/19 17:24:14 [电话] 18500342645,总共被查询 1 次。
  • 2019/12/19 17:23:44 [电话] 18917296230,总共被查询 1 次。
  • 2019/12/19 17:23:09 [电话] 15712991874,总共被查询 1 次。
  • 2019/12/19 17:23:09 [电话] 18896855118,总共被查询 1 次。
  • 2019/12/19 17:23:08 [电话] 17722186900,总共被查询 1 次。
  • 2019/12/19 17:23:08 [电话] 18722024264,总共被查询 1 次。
  • 2019/12/19 17:23:08 [电话] 18818692344,总共被查询 1 次。
  • 2019/12/19 17:23:08 [电话] 13045124116,总共被查询 1 次。
  • 2019/12/19 17:23:07 [电话] 15858469676,总共被查询 1 次。
  • 2019/12/19 17:23:07 [电话] 17040881722,总共被查询 1 次。
  • 2019/12/19 17:23:07 [电话] 15712075702,总共被查询 1 次。
  • 2019/12/19 17:23:07 [电话] 18829095779,总共被查询 1 次。
  • 2019/12/19 17:23:07 [电话] 18679229715,总共被查询 1 次。
  • 2019/12/19 17:23:06 [电话] 17858871372,总共被查询 1 次。
  • 2019/12/19 17:17:53 [电话] 18610751706,总共被查询 1 次。
  • 2019/12/19 17:15:38 [邮箱] v-jiad@microsoft.com,总共被查询 6 次。
  • 2019/12/19 17:15:14 [邮箱] v-shusun@microsoft.com,总共被查询 2 次。
  • 2019/12/19 17:08:39 [电话] 13931012815,总共被查询 1 次。
  • 2019/12/19 16:51:25 [QQ] 654065118,总共被查询 8 次。
  • 2019/12/19 16:40:53 [电话] 18100688918,总共被查询 6 次。
  • 2019/12/19 16:23:10 [电话] 19951263297,总共被查询 1 次。
  • 2019/12/19 16:23:10 [电话] 15024531504,总共被查询 1 次。
  • 2019/12/19 16:23:10 [电话] 13713357970,总共被查询 1 次。
  • 2019/12/19 16:23:10 [电话] 18611557304,总共被查询 1 次。
  • 2019/12/19 16:23:10 [电话] 18179172943,总共被查询 1 次。
  • 2019/12/19 16:23:10 [电话] 17600057358,总共被查询 1 次。
  • 2019/12/19 16:23:09 [电话] 13482827053,总共被查询 1 次。
  • 2019/12/19 16:23:09 [电话] 16628570560,总共被查询 1 次。
  • 2019/12/19 16:22:03 [电话] 15759268990,总共被查询 5 次。
  • 2019/12/19 16:21:34 [电话] 13358598667,总共被查询 9 次。
  • 2019/12/19 16:09:48 [电话] 15082067675,总共被查询 2 次。
  • 2019/12/19 16:00:45 [企业] 福建海峡,总共被查询 7 次。
  • 2019/12/19 16:00:32 [企业] 福州四喜,总共被查询 11 次。
  • 2019/12/19 16:00:18 [企业] 福建四喜,总共被查询 18 次。
  • 2019/12/19 15:54:14 [银行] 41001523097052502202,总共被查询 2 次。
  • 2019/12/19 15:53:50 [QQ] 935604595,总共被查询 10 次。
  • 2019/12/19 15:50:10 [企业] 北京东方逸腾数码医疗设备有限公司,总共被查询 15 次。
  • 2019/12/19 15:46:05 [QQ] 173440598,总共被查询 8 次。
  • 2019/12/19 15:43:33 [电话] 13621653487,总共被查询 1 次。
  • 2019/12/19 15:38:28 [QQ] 574317128,总共被查询 1 次。
  • 2019/12/19 15:38:01 [邮箱] hr@guosen.espace,总共被查询 2 次。
  • 2019/12/19 15:37:34 [身份证] 441802199701202458,总共被查询 2 次。
  • 2019/12/19 15:37:09 [QQ] 2168916307,总共被查询 1 次。
  • 2019/12/19 15:36:43 [电话] 2168916307,总共被查询 8 次。
  • 2019/12/19 15:33:21 [QQ] 378578935,总共被查询 1 次。
  • 2019/12/19 15:31:58 [电话] 15995962150,总共被查询 8 次。
  • 2019/12/19 15:31:13 [电话] 15880242213,总共被查询 8 次。
  • 2019/12/19 15:30:40 [电话] 378578935,总共被查询 10 次。
  • 2019/12/19 15:26:17 [QQ] 203990422,总共被查询 9 次。
  • 2019/12/19 15:24:40 [电话] 18261702981,总共被查询 1 次。
  • 2019/12/19 15:23:21 [电话] 13210047230,总共被查询 1 次。
  • 2019/12/19 15:23:21 [电话] 18642588802,总共被查询 1 次。
  • 2019/12/19 15:23:21 [电话] 13564601362,总共被查询 1 次。
  • 2019/12/19 15:23:21 [电话] 18708712997,总共被查询 1 次。
  • 2019/12/19 15:23:21 [电话] 17606792564,总共被查询 1 次。
  • 2019/12/19 15:23:21 [电话] 15064379871,总共被查询 1 次。
  • 2019/12/19 15:23:21 [电话] 13852123443,总共被查询 1 次。
  • 2019/12/19 15:23:21 [电话] 13151767454,总共被查询 1 次。
  • 2019/12/19 15:23:21 [电话] 17072948509,总共被查询 1 次。
  • 2019/12/19 15:23:21 [电话] 19804144608,总共被查询 1 次。
  • 2019/12/19 15:23:21 [电话] 15737108364,总共被查询 1 次。
  • 2019/12/19 15:23:21 [电话] 13331128930,总共被查询 1 次。
  • 2019/12/19 15:20:46 [电话] 13590414157,总共被查询 6 次。
  • 2019/12/19 15:18:26 [电话] 18312589470,总共被查询 2 次。
  • 2019/12/19 15:15:57 [身份证] 500234199307253912,总共被查询 16 次。
  • 2019/12/19 15:15:21 [电话] 18123967735,总共被查询 1 次。
  • 2019/12/19 15:12:41 [电话] 15267973779,总共被查询 9 次。
  • 2019/12/19 15:11:36 [电话] 18129800087,总共被查询 15 次。
  • 2019/12/19 15:10:13 [电话] 18171471903,总共被查询 1 次。
  • 2019/12/19 15:09:35 [企业] 运城市清泽环保科技有限公司,总共被查询 2 次。
  • 2019/12/19 15:08:43 [QQ] 591546196,总共被查询 1 次。
  • 2019/12/19 15:08:10 [电话] 18198000087,总共被查询 1 次。
  • 2019/12/19 15:07:36 [身份证] 142627198803160318,总共被查询 1 次。
  • 2019/12/19 15:07:23 [电话] 15298150147,总共被查询 1 次。
  • 2019/12/19 15:06:35 [电话] 13594030854,总共被查询 9 次。
  • 2019/12/19 15:06:31 [电话] 18735374616,总共被查询 3 次。
  • 2019/12/19 15:04:28 [QQ] 3387864914,总共被查询 8 次。
  • 2019/12/19 15:02:52 [身份证] 511621200112077750,总共被查询 10 次。
  • 2019/12/19 14:46:32 [身份证] 130681199109255519,总共被查询 13 次。
  • 2019/12/19 14:43:02 [电话] 17629230828,总共被查询 1 次。
  • 2019/12/19 14:33:35 [企业] 好莱客,总共被查询 2 次。
  • 2019/12/19 14:33:11 [QQ] 2386910799,总共被查询 1 次。
  • 2019/12/19 14:33:11 [QQ] 2386910799,总共被查询 1 次。
  • 2019/12/19 14:30:00 [网店] 中之杰旗舰店,总共被查询 2 次。
  • 2019/12/19 14:29:28 [企业] 中之杰食品有限公司,总共被查询 2 次。
  • 2019/12/19 14:28:19 [QQ] 944393954,总共被查询 1 次。
  • 2019/12/19 14:28:14 [电话] 15705603005,总共被查询 1 次。
  • 2019/12/19 14:27:34 [电话] 15948709939,总共被查询 1 次。
  • 2019/12/19 14:25:41 [身份证] 332526196210064325,总共被查询 12 次。
  • 2019/12/19 14:25:21 [电话] 18365896831,总共被查询 10 次。
  • 2019/12/19 14:25:03 [电话] 15731691251,总共被查询 1 次。
  • 2019/12/19 14:23:23 [电话] 13252186709,总共被查询 1 次。
  • 2019/12/19 14:23:23 [电话] 19804078089,总共被查询 1 次。
  • 2019/12/19 14:23:23 [电话] 18827419766,总共被查询 1 次。
  • 2019/12/19 14:23:23 [电话] 17047160322,总共被查询 1 次。
  • 2019/12/19 14:23:23 [电话] 17315341814,总共被查询 1 次。
  • 2019/12/19 14:23:23 [电话] 13222059874,总共被查询 1 次。
  • 2019/12/19 14:23:23 [电话] 19855518356,总共被查询 1 次。
  • 2019/12/19 14:23:23 [电话] 17773590880,总共被查询 1 次。
  • 2019/12/19 14:23:23 [电话] 17520261220,总共被查询 1 次。
  • 2019/12/19 14:23:22 [电话] 13229979849,总共被查询 1 次。
  • 2019/12/19 14:23:22 [电话] 15340044227,总共被查询 1 次。
  • 2019/12/19 14:23:20 [电话] 13714574751,总共被查询 1 次。
  • 2019/12/19 14:23:19 [电话] 13522070441,总共被查询 2 次。
  • 2019/12/19 14:23:19 [电话] 13521403604,总共被查询 1 次。
  • 2019/12/19 14:20:42 [QQ] 624850470,总共被查询 4 次。
  • 2019/12/19 14:19:57 [电话] 18709440696,总共被查询 1 次。
  • 2019/12/19 14:01:33 [电话] 13824399071,总共被查询 1 次。
  • 2019/12/19 13:54:18 [QQ] 1213166803,总共被查询 1 次。
  • 2019/12/19 13:43:25 [电话] 02088324350,总共被查询 7 次。
  • 2019/12/19 13:29:08 [电话] 15710629069,总共被查询 1 次。
  • 2019/12/19 13:27:53 [QQ] 3011990585,总共被查询 12 次。
  • 2019/12/19 13:26:51 [身份证] 420105199501304229,总共被查询 9 次。
  • 2019/12/19 13:26:19 [QQ] 305514429,总共被查询 3 次。
  • 2019/12/19 13:25:36 [电话] 17786625388,总共被查询 6 次。
  • 2019/12/19 13:23:06 [电话] 17600441185,总共被查询 1 次。
  • 2019/12/19 13:23:06 [电话] 13520773594,总共被查询 1 次。
  • 2019/12/19 13:23:06 [电话] 13236824057,总共被查询 2 次。
  • 2019/12/19 13:22:44 [电话] 18701540747,总共被查询 2 次。
  • 2019/12/19 13:13:39 [身份证] 320324199504192513,总共被查询 1 次。
  • 2019/12/19 13:12:44 [QQ] 1817479596,总共被查询 2 次。
  • 2019/12/19 13:10:49 [QQ] 2655213937,总共被查询 6 次。
  • 2019/12/19 13:08:53 [QQ] 2593557739,总共被查询 1 次。
  • 2019/12/19 13:08:32 [银行] 6217901700002261732,总共被查询 2 次。
  • 2019/12/19 13:07:03 [身份证] 371722200312286616,总共被查询 12 次。
  • 2019/12/19 13:05:55 [电话] 13001797113,总共被查询 3 次。
  • 2019/12/19 12:39:51 [电话] 13051371191,总共被查询 1 次。
  • 2019/12/19 12:23:26 [电话] 13087495816,总共被查询 9 次。
  • 2019/12/19 12:23:26 [电话] 13229440163,总共被查询 2 次。
  • 2019/12/19 12:23:26 [电话] 17608725935,总共被查询 5 次。
  • 2019/12/19 12:23:25 [电话] 13829895922,总共被查询 7 次。
  • 2019/12/19 12:23:25 [电话] 18820949323,总共被查询 2 次。
  • 2019/12/19 12:23:25 [电话] 16628571312,总共被查询 2 次。
  • 2019/12/19 12:07:45 [电话] 15913419930,总共被查询 4 次。
  • 2019/12/19 12:07:07 [身份证] 150403198610091545,总共被查询 4 次。
  • 2019/12/19 12:06:30 [电话] 13244740909,总共被查询 5 次。
  • 2019/12/19 12:06:07 [身份证] 441581199509052751,总共被查询 5 次。
  • 2019/12/19 11:59:26 [邮箱] 461786277@qq.com,总共被查询 1 次。
  • 2019/12/19 11:58:06 [QQ] 461786277,总共被查询 13 次。
  • 2019/12/19 11:57:25 [电话] 18976061198,总共被查询 5 次。
  • 2019/12/19 11:57:21 [QQ] 740227743,总共被查询 12 次。
  • 2019/12/19 11:55:17 [电话] 15283228053,总共被查询 5 次。
  • 2019/12/19 11:44:52 [电话] 18526869210,总共被查询 1 次。
  • 2019/12/19 11:44:17 [电话] 15320176444,总共被查询 1 次。
  • 2019/12/19 11:43:31 [电话] 02759598572,总共被查询 1 次。
  • 2019/12/19 11:23:42 [电话] 13718922507,总共被查询 1 次。
  • 2019/12/19 11:23:42 [电话] 18843947500,总共被查询 1 次。
  • 2019/12/19 11:23:42 [电话] 18728036818,总共被查询 1 次。
  • 2019/12/19 11:23:42 [电话] 19879835465,总共被查询 1 次。
  • 2019/12/19 11:23:41 [电话] 15294630986,总共被查询 1 次。
  • 2019/12/19 11:23:41 [电话] 13548696127,总共被查询 1 次。
  • 2019/12/19 11:23:41 [电话] 18865046951,总共被查询 1 次。
  • 2019/12/19 11:23:40 [电话] 13520695764,总共被查询 1 次。
  • 2019/12/19 11:23:40 [电话] 17520478289,总共被查询 1 次。
  • 2019/12/19 11:23:40 [电话] 18793538310,总共被查询 1 次。
  • 2019/12/19 11:23:40 [电话] 15670615435,总共被查询 1 次。
  • 2019/12/19 11:23:40 [电话] 18891879455,总共被查询 1 次。
  • 2019/12/19 11:23:40 [电话] 18770796476,总共被查询 1 次。
  • 2019/12/19 11:23:39 [电话] 18832606780,总共被查询 1 次。
  • 2019/12/19 11:23:39 [电话] 17063137964,总共被查询 1 次。
  • 2019/12/19 11:23:39 [电话] 19873903651,总共被查询 1 次。
  • 2019/12/19 11:20:56 [企业] 广州市盛瀛贸易有限公司,总共被查询 15 次。
  • 2019/12/19 11:19:29 [电话] 18858099477,总共被查询 1 次。
  • 2019/12/19 11:19:01 [身份证] 330206198903221720,总共被查询 2 次。
  • 2019/12/19 11:18:25 [QQ] 2227300559,总共被查询 0 次。
  • 2019/12/19 11:14:30 [电话] 18868692626,总共被查询 1 次。
  • 2019/12/19 11:13:21 [电话] 13934619206,总共被查询 1 次。
  • 2019/12/19 10:56:06 [电话] 15605857646,总共被查询 12 次。
  • 2019/12/19 10:54:51 [电话] 13330428824,总共被查询 1 次。
  • 2019/12/19 10:53:04 [QQ] 601328419,总共被查询 1 次。
  • 2019/12/19 10:52:04 [电话] 13649681790,总共被查询 10 次。
  • 2019/12/19 10:44:30 [身份证] 51012119770117883X,总共被查询 2 次。
  • 2019/12/19 10:30:27 [企业] 麦蔻科技,总共被查询 9 次。
  • 2019/12/19 10:30:24 [电话] 13001302736,总共被查询 1 次。
  • 2019/12/19 10:25:30 [QQ] 2045778136,总共被查询 10 次。
  • 2019/12/19 10:24:46 [身份证] 513822199212251132,总共被查询 13 次。
  • 2019/12/19 10:23:36 [电话] 18328505419,总共被查询 1 次。
  • 2019/12/19 10:23:11 [电话] 19861823860,总共被查询 1 次。
  • 2019/12/19 10:23:11 [电话] 18880415109,总共被查询 1 次。
  • 2019/12/19 10:23:11 [电话] 17775742017,总共被查询 1 次。
  • 2019/12/19 10:23:11 [电话] 15771773167,总共被查询 1 次。
  • 2019/12/19 10:23:10 [电话] 19879635474,总共被查询 1 次。
  • 2019/12/19 10:23:10 [电话] 13764930133,总共被查询 1 次。
  • 2019/12/19 10:23:10 [电话] 18594029820,总共被查询 1 次。
  • 2019/12/19 10:23:10 [电话] 17046040421,总共被查询 1 次。
  • 2019/12/19 10:23:10 [电话] 13632245816,总共被查询 1 次。
  • 2019/12/19 10:18:14 [QQ] 826058583,总共被查询 1 次。
  • 2019/12/19 10:17:28 [电话] 15888569456,总共被查询 1 次。
  • 2019/12/19 10:16:54 [身份证] 440582199503165419,总共被查询 11 次。
  • 2019/12/19 10:16:49 [QQ] 876204230,总共被查询 9 次。
  • 2019/12/19 10:15:34 [企业] 拉卡拉,总共被查询 1 次。
  • 2019/12/19 10:15:18 [企业] 石榴置业,总共被查询 1 次。
  • 2019/12/19 10:14:52 [身份证] 320584201905230303,总共被查询 2 次。
  • 2019/12/19 10:14:39 [电话] 03734115507,总共被查询 1 次。
  • 2019/12/19 10:13:29 [电话] 18796006075,总共被查询 1 次。
  • 2019/12/19 10:13:20 [身份证] 320528201905230303,总共被查询 9 次。
  • 2019/12/19 10:10:29 [电话] 13153858930,总共被查询 14 次。
  • 2019/12/19 9:57:21 [QQ] 534609868,总共被查询 13 次。
  • 2019/12/19 9:56:25 [身份证] 211103198212121746,总共被查询 12 次。
  • 2019/12/19 9:54:25 [电话] 13439401320,总共被查询 1 次。
  • 2019/12/19 9:54:07 [电话] 16601399018,总共被查询 1 次。
  • 2019/12/19 9:51:02 [电话] 18317322217,总共被查询 9 次。
  • 2019/12/19 9:46:56 [电话] 18600686834,总共被查询 12 次。
  • 2019/12/19 9:39:25 [QQ] 1289067090,总共被查询 1 次。
  • 2019/12/19 9:36:34 [QQ] 3026268095,总共被查询 6 次。
  • 2019/12/19 9:35:45 [电话] 17631972142,总共被查询 1 次。
  • 2019/12/19 9:35:45 [QQ] 3504732249,总共被查询 1 次。
  • 2019/12/19 9:33:37 [电话] 074595237636,总共被查询 1 次。
  • 2019/12/19 9:26:31 [电话] 13062889426,总共被查询 8 次。
  • 2019/12/19 9:25:57 [电话] 13262299767,总共被查询 8 次。
  • 2019/12/19 9:23:07 [电话] 18608981423,总共被查询 1 次。
  • 2019/12/19 9:23:07 [电话] 19965776866,总共被查询 1 次。
  • 2019/12/19 9:23:07 [电话] 13065988782,总共被查询 1 次。
  • 2019/12/19 9:23:07 [电话] 13562095830,总共被查询 1 次。
  • 2019/12/19 9:23:07 [电话] 13155992632,总共被查询 1 次。
  • 2019/12/19 9:03:45 [身份证] 500237199309010438,总共被查询 2 次。
  • 2019/12/19 8:57:29 [电话] 16239482638,总共被查询 2 次。
  • 2019/12/19 8:56:45 [电话] 13896274004,总共被查询 12 次。
  • 2019/12/19 8:51:57 [电话] 15020955712,总共被查询 6 次。
  • 2019/12/19 8:51:57 [电话] 15305390953,总共被查询 6 次。
  • 2019/12/19 8:51:57 [电话] 15263925431,总共被查询 7 次。
  • 2019/12/19 8:49:50 [电话] 13538159048,总共被查询 1 次。
  • 2019/12/19 8:49:50 [电话] 15989341339,总共被查询 1 次。
  • 2019/12/19 8:49:40 [电话] 13802511370,总共被查询 1 次。
  • 2019/12/19 8:49:40 [电话] 13640211307,总共被查询 1 次。
  • 2019/12/19 8:49:40 [电话] 13826116677,总共被查询 1 次。
  • 2019/12/19 8:48:28 [QQ] 75005687,总共被查询 1 次。
  • 2019/12/19 8:47:33 [电话] 17843659998,总共被查询 1 次。
  • 2019/12/19 8:46:31 [电话] 18802066186,总共被查询 9 次。
  • 2019/12/19 8:46:24 [电话] 13149090858,总共被查询 11 次。
  • 2019/12/19 8:43:58 [QQ] 946866270,总共被查询 1 次。
  • 2019/12/19 8:43:16 [身份证] 330381199711295215,总共被查询 11 次。
  • 2019/12/19 8:42:59 [电话] 0577665569,总共被查询 1 次。
  • 2019/12/19 8:42:24 [电话] 15967711738,总共被查询 1 次。
  • 2019/12/19 8:42:01 [电话] 15868029402,总共被查询 3 次。
  • 2019/12/19 8:41:33 [电话] 15857720918,总共被查询 5 次。
  • 2019/12/19 8:41:04 [电话] 15258791230,总共被查询 6 次。
  • 2019/12/19 8:40:14 [电话] 13535453334,总共被查询 1 次。
  • 2019/12/19 8:40:06 [电话] 13068801798,总共被查询 1 次。
  • 2019/12/19 8:36:58 [电话] 13559253495,总共被查询 16 次。
  • 2019/12/19 8:36:58 [电话] 18319860919,总共被查询 3 次。
  • 2019/12/19 8:34:20 [电话] 15637910027,总共被查询 1 次。
  • 2019/12/19 8:34:20 [电话] 13525960280,总共被查询 1 次。
  • 2019/12/19 8:33:47 [电话] 18978856056,总共被查询 1 次。
  • 2019/12/19 8:24:13 [电话] 15383765230,总共被查询 1 次。
  • 2019/12/19 8:23:20 [QQ] 363646920,总共被查询 1 次。
  • 2019/12/19 8:17:53 [电话] 15571975577,总共被查询 1 次。
  • 2019/12/19 8:17:53 [电话] 13872818345,总共被查询 1 次。
  • 2019/12/19 7:51:29 [电话] 15081115522,总共被查询 3 次。
  • 2019/12/19 6:23:06 [电话] 18351192777,总共被查询 1 次。
  • 2019/12/19 5:48:12 [电话] 13226148258,总共被查询 2 次。
  • 2019/12/19 5:23:04 [电话] 19859123165,总共被查询 1 次。
  • 2019/12/19 4:51:17 [电话] 15696038648,总共被查询 9 次。
  • 2019/12/19 3:23:17 [电话] 13932535313,总共被查询 1 次。
  • 2019/12/19 2:45:11 [QQ] 28962307,总共被查询 1 次。
  • 2019/12/19 2:23:07 [电话] 18665953214,总共被查询 1 次。
  • 2019/12/19 2:23:07 [电话] 13790842234,总共被查询 1 次。
  • 2019/12/19 1:55:28 [QQ] 1541036125,总共被查询 1 次。
  • 2019/12/19 1:43:15 [QQ] 347598142,总共被查询 1 次。
  • 2019/12/19 1:42:24 [电话] 18576606504,总共被查询 1 次。
  • 2019/12/19 1:23:07 [电话] 13069870599,总共被查询 1 次。
  • 2019/12/19 1:23:07 [电话] 17074533358,总共被查询 1 次。
  • 2019/12/19 1:23:07 [电话] 18943278232,总共被查询 1 次。
  • 2019/12/19 1:10:03 [电话] 15821030932,总共被查询 2 次。
  • 2019/12/19 1:03:58 [电话] 13694676771,总共被查询 1 次。
  • 2019/12/19 0:58:38 [QQ] 14284537,总共被查询 1 次。
  • 2019/12/19 0:57:45 [电话] 17606508417,总共被查询 2 次。
  • 2019/12/19 0:54:39 [QQ] 2016476550,总共被查询 1 次。
  • 2019/12/19 0:45:34 [电话] 17710564859,总共被查询 6 次。
  • 2019/12/19 0:45:08 [电话] 17600112389,总共被查询 1 次。
  • 2019/12/19 0:28:03 [身份证] 422124198104042348,总共被查询 2 次。
  • 2019/12/19 0:27:32 [QQ] 297053691,总共被查询 1 次。
  • 2019/12/19 0:27:32 [QQ] 297053691,总共被查询 1 次。
  • 2019/12/19 0:26:58 [身份证] 421127198004121717,总共被查询 7 次。
  • 2019/12/19 0:25:51 [电话] 15816264958,总共被查询 11 次。
  • 2019/12/19 0:25:09 [电话] 13662279506,总共被查询 1 次。
  • 2019/12/19 0:24:23 [电话] 15072752199,总共被查询 1 次。
  • 2019/12/19 0:23:05 [电话] 15220362837,总共被查询 1 次。
  • 2019/12/19 0:23:05 [电话] 18803022606,总共被查询 1 次。
  • 2019/12/19 0:23:05 [电话] 18030516122,总共被查询 1 次。

更多: 1 下一页 

公告

 

欢迎来到防骗数据库(www.fpsjk.com)防骗信息公开举报和搜索平台。本站用户举报共计条数为:

608189

 

防骗数据库客户端推出了,为方便查询来下载

 

 

防骗资讯全新改版,防骗论坛全新推出,欢迎访问。